sat.trackr.live / text

‹ back to catalog

STARLINK-31542

NORAD 59194 · 2024-045S

PAYLOAD ACTIVE UNKNOWN

§ Identity

Operator
Country
US
Launch date
2024-03-10
Launch site
AFETR
Launch vehicle
Mass (kg)
RCS (m²)

Purposes: comms

External: N2YO · Heavens-Above · Gunter

§ Orbital elements

Epoch: 2026-09-20T22:03:06.189696Z

Period
94.27 min
Inclination
43.0084°
Eccentricity
0.0003765
Mean motion
15.27576816 rev/d
Perigee alt
480.5 km
Apogee alt
485.6 km
Semi-major
6,861.2 km
B*
-3.3567e-5
RAAN
69.6013°
Arg perigee
249.1242°
Mean anomaly
110.9207°
Rev number
14,302

§ Raw data

STARLINK-315421 59194U 24045S   26263.91882164 -.00001187  00000+0 -33567-4 0  99972 59194  43.0084  69.6013 0003765 249.1242 110.9207 15.27576816143027

JSON: /api/v1/satellites/59194 · /tle

For live sub-satellite position, see the globe view (requires WebGL).

§ Visibility from observer

Set your observer location to see the next 7 days of passes ≥ 10°. The values pass through the URL so the page stays shareable.

No JS? Fill the form by hand. The geolocation button needs JavaScript.